This demonstration page uses our WeatherBlox Daily Observations layout. Learn more.

Left ArrowRight Arrow

34.16533, -84.80231

Hourly Observations for August 5, 2018

Temp ( °F °C ) Dew Point ( °F °C ) Humidity (%) Winds ( mph kmh ) Pressure ( in mb ) Visibility ( mi km ) Precip ( " mm )
12:53 am 00:53 Clear 72 22.2 71 21.7 97 97 Calm 30.17 1022 10 16 0.00 0.00
1:53 am 01:53 Clear 70 21.1 70 21.1 100 100 Calm 30.17 1022 10 16 0.00 0.00
2:53 am 02:53 Clear 70 21.1 70 21.1 100 100 Calm 30.17 1022 10 16 0.00 0.00
3:53 am 03:53 Clear 70 21.1 70 21.1 100 100 Calm 30.17 1022 10 16 0.00 0.00
4:53 am 04:53 Clear 68 20 68 20 100 100 Calm 30.18 1022 10 16 0.00 0.00
5:53 am 05:53 Clear 69 20.6 69 20.6 100 100 Calm 30.18 1022 10 16 0.00 0.00
6:53 am 06:53 Clear 68 20 68 20 100 100 Calm 30.20 1023 10 16 0.00 0.00
7:13 am 07:13 Partly Cloudy 69 20.6 69 20.6 100 100 Calm 30.21 1023 7 11 0.00 0.00
7:53 am 07:53 Sunny 71 21.7 71 21.7 100 100 Calm 30.23 1024 8 13 0.00 0.00
8:53 am 08:53 Sunny 77 25 75 23.9 94 94 Calm 30.24 1024 10 16 0.00 0.00
9:53 am 09:53 Sunny 81 27.2 75 23.9 82 82 E 3 6 30.23 1024 10 16 0.00 0.00
10:53 am 10:53 Sunny 85 29.4 76 24.4 75 75 N 6 9 30.23 1024 10 16 0.00 0.00
11:53 am 11:53 Mostly Sunny 84 28.9 72 22.2 67 67 Calm 30.22 1024 10 16 0.00 0.00
12:53 pm 12:53 Partly Cloudy 88 31.1 71 21.7 57 57 Calm 30.21 1023 10 16 0.00 0.00
1:53 pm 13:53 Sunny 89 31.7 71 21.7 55 55 undefined N/A 30.20 1023 10 16 0.00 0.00
2:53 pm 14:53 Sunny 90 32.2 71 21.7 54 54 Calm 30.17 1022 10 16 0.00 0.00
3:53 pm 15:53 Partly Cloudy 90 32.2 72 22.2 56 56 Calm 30.15 1021 10 16 0.00 0.00
4:53 pm 16:53 Sunny 90 32.2 71 21.7 54 54 VRB 3 6 30.14 1021 10 16 0.00 0.00
5:53 pm 17:53 Mostly Sunny 90 32.2 69 20.6 50 50 Calm 30.13 1020 10 16 0.00 0.00
6:53 pm 18:53 Sunny 85 29.4 73 22.8 68 68 Calm 30.11 1020 10 16 0.00 0.00
7:53 pm 19:53 Sunny 84 28.9 79 26.1 85 85 Calm 30.13 1020 10 16 0.00 0.00
8:53 pm 20:53 Mostly Clear 78 25.6 77 25 97 97 Calm 30.15 1021 10 16 0.00 0.00
9:53 pm 21:53 Clear 76 24.4 75 23.9 97 97 Calm 30.17 1022 10 16 0.00 0.00
10:53 pm 22:53 Clear 74 23.3 74 23.3 100 100 Calm 30.17 1022 10 16 0.00 0.00
11:53 pm 23:53 Clear 75 23.9 74 23.3 96 96 Calm 30.17 1022 10 16 0.00 0.00

Powered by AerisWeather